2023/01/29 00:00:00,111.1,-6.9
2023/01/29 00:10:00,111.1,-6.6
2023/01/29 00:20:00,111.1,-6.2
2023/01/29 00:30:00,111.0,-6.6
2023/01/29 00:40:00,110.9,-6.4
2023/01/29 00:50:00,110.9,-6.4
2023/01/29 01:00:00,110.8,-6.6
2023/01/29 01:10:00,110.5,-5.7
2023/01/29 01:20:00,110.4,-5.1
2023/01/29 01:30:00,110.4,-5.2
2023/01/29 01:40:00,110.5,-5.6
2023/01/29 01:50:00,110.3,-5.8
2023/01/29 02:00:00,110.2,-5.5
2023/01/29 02:10:00,110.1,-5.3
2023/01/29 02:20:00,109.7,-6.0
2023/01/29 02:30:00,109.6,-5.9
2023/01/29 02:40:00,109.8,-6.3
2023/01/29 02:50:00,109.8,-6.1
2023/01/29 03:00:00,109.8,-6.1
2023/01/29 03:10:00,109.9,-6.4
2023/01/29 03:20:00,109.7,-6.3
2023/01/29 03:30:00,109.6,-6.6
2023/01/29 03:40:00,109.5,-6.2
2023/01/29 03:50:00,109.5,-5.8
2023/01/29 04:00:00,109.4,-5.5
2023/01/29 04:10:00,109.3,-5.6
2023/01/29 04:20:00,109.2,-6.1
2023/01/29 04:30:00,109.1,-6.0
2023/01/29 04:40:00,109.0,-5.7
2023/01/29 04:50:00,109.1,-5.6
2023/01/29 05:00:00,109.0,-5.4
2023/01/29 05:10:00,108.7,-5.3
2023/01/29 05:20:00,108.7,-5.2
2023/01/29 05:30:00,108.7,-5.9
2023/01/29 05:40:00,108.6,-6.0
2023/01/29 05:50:00,108.5,-5.9
2023/01/29 06:00:00,108.4,-5.8
2023/01/29 06:10:00,108.5,-5.8
2023/01/29 06:20:00,108.2,-5.7
2023/01/29 06:30:00,108.0,-5.2
2023/01/29 06:40:00,107.9,-5.2
2023/01/29 06:50:00,107.7,-5.1
2023/01/29 07:00:00,107.7,-5.2
2023/01/29 07:10:00,107.8,-5.3
2023/01/29 07:20:00,107.9,-5.5
2023/01/29 07:30:00,107.9,-4.9
2023/01/29 07:40:00,107.8,-5.0
2023/01/29 07:50:00,107.4,-4.8
2023/01/29 08:00:00,107.2,-4.7
2023/01/29 08:10:00,107.2,-4.8
2023/01/29 08:20:00,107.3,-4.6
2023/01/29 08:30:00,107.2,-4.2
2023/01/29 08:40:00,107.0,-4.0
2023/01/29 08:50:00,106.9,-3.9
2023/01/29 09:00:00,107.0,-3.9
2023/01/29 09:10:00,107.2,-3.2
2023/01/29 09:20:00,107.0,-3.2
2023/01/29 09:30:00,106.7,-2.7
2023/01/29 09:40:00,106.5,-2.2
2023/01/29 09:50:00,106.6,-2.5
2023/01/29 10:00:00,106.4,-1.7
2023/01/29 10:10:00,106.3,-1.0
2023/01/29 10:20:00,106.1,-0.4
2023/01/29 10:30:00,105.9, 0.7
2023/01/29 10:40:00,105.9,-0.4
2023/01/29 10:50:00,106.0,-0.1
2023/01/29 11:00:00,105.9,-0.9
2023/01/29 11:10:00,105.9,-0.2
2023/01/29 11:20:00,105.7, 0.9
2023/01/29 11:30:00,105.7, 0.6
2023/01/29 11:40:00,105.4, 1.1
2023/01/29 11:50:00,105.0, 2.7
2023/01/29 12:00:00,105.0, 3.4
2023/01/29 12:10:00,105.7, 4.0
2023/01/29 12:20:00,105.8, 3.5
2023/01/29 12:30:00,105.0, 4.2
2023/01/29 12:40:00,104.6, 4.2
2023/01/29 12:50:00,104.3, 5.3
2023/01/29 13:00:00,104.0, 5.4
2023/01/29 13:10:00,104.0, 4.0
2023/01/29 13:20:00,103.8, 3.6
2023/01/29 13:30:00,103.9, 2.1
2023/01/29 13:40:00,103.8, 0.4
2023/01/29 13:50:00,104.0,-0.3
2023/01/29 14:00:00,103.9,-0.3
2023/01/29 14:10:00,103.7,-0.6
2023/01/29 14:20:00,103.6,-0.3
2023/01/29 14:30:00,103.6,-0.2
2023/01/29 14:40:00,103.5, 0.5
2023/01/29 14:50:00,103.5,-0.4
2023/01/29 15:00:00,103.5,-1.0
2023/01/29 15:10:00,103.3,-0.9
2023/01/29 15:20:00,103.2,-0.4
2023/01/29 15:30:00,103.1,-1.0
2023/01/29 15:40:00,103.0,-0.9
2023/01/29 15:50:00,102.9,-1.2
2023/01/29 16:00:00,102.8,-0.9
2023/01/29 16:10:00,102.8,-1.1
2023/01/29 16:20:00,102.8,-1.3
2023/01/29 16:30:00,102.9,-1.8
2023/01/29 16:40:00,102.9,-2.3
2023/01/29 16:50:00,103.0,-2.7
2023/01/29 17:00:00,102.9,-2.8
2023/01/29 17:10:00,102.6,-3.2
2023/01/29 17:20:00,102.5,-3.2
2023/01/29 17:30:00,102.4,-3.4
2023/01/29 17:40:00,102.5,-3.1
2023/01/29 17:50:00,102.6,-3.7
2023/01/29 18:00:00,102.4,-3.3
2023/01/29 18:10:00,102.3,-3.5
2023/01/29 18:20:00,102.5,-3.7
2023/01/29 18:30:00,102.5,-3.6
2023/01/29 18:40:00,102.2,-3.2
2023/01/29 18:50:00,102.1,-3.4
2023/01/29 19:00:00,102.1,-3.3
2023/01/29 19:10:00,102.1,-3.6
2023/01/29 19:20:00,102.1,-3.4
2023/01/29 19:30:00,101.9,-3.5
2023/01/29 19:40:00,101.7,-3.5
2023/01/29 19:50:00,101.6,-3.9
2023/01/29 20:00:00,101.6,-3.9
2023/01/29 20:10:00,101.7,-4.6
2023/01/29 20:20:00,101.8,-4.0
2023/01/29 20:30:00,101.7,-3.5
2023/01/29 20:40:00,101.5,-3.9
2023/01/29 20:50:00,101.3,-3.9
2023/01/29 21:00:00,101.4,-4.2
2023/01/29 21:10:00,101.5,-4.3
2023/01/29 21:20:00,101.6,-3.6
2023/01/29 21:30:00,101.6,-3.9
2023/01/29 21:40:00,101.7,-3.9
2023/01/29 21:50:00,101.7,-3.7
2023/01/29 22:00:00,101.6,-3.5
2023/01/29 22:10:00,101.4,-3.2
2023/01/29 22:20:00,101.3,-3.4
2023/01/29 22:30:00,101.1,-3.7
2023/01/29 22:40:00,101.0,-3.5
2023/01/29 22:50:00,100.9,-4.0
2023/01/29 23:00:00,100.9,-4.1
2023/01/29 23:10:00,100.9,-4.3
2023/01/29 23:20:00,100.9,-4.3
2023/01/29 23:30:00,100.7,-4.8
2023/01/29 23:40:00,100.9,-4.7
2023/01/29 23:50:00,100.8,-4.0
